Weather reports worldwide

Advertisment
Metz-Nancy-Lorraine, France (7093): temperature & dewpoint: 10.01.2018 08:00:00 - 16.01.2018 08:00:00 (CET)Metz-Nancy-Lorraine, France (7093): wind speed & gusts: 10.01.2018 08:00:00 - 16.01.2018 08:00:00 (CET)Metz-Nancy-Lorraine, France (7093): wind direction: 10.01.2018 08:00:00 - 16.01.2018 08:00:00 (CET)Metz-Nancy-Lorraine, France (7093): reduced air pressure: 10.01.2018 08:00:00 - 16.01.2018 08:00:00 (CET)Metz-Nancy-Lorraine, France (7093): visibility: 10.01.2018 08:00:00 - 16.01.2018 08:00:00 (CET)Metz-Nancy-Lorraine, France (7093): sunshine duration: 10.01.2018 08:00:00 - 16.01.2018 08:00:00 (CET)Metz-Nancy-Lorraine, France (7093): precipitation: 10.01.2018 08:00:00 - 16.01.2018 08:00:00 (CET)
Date & Time tt [°C] td [°C] ff [km/h] ff [kn] fx [km/h] fx [kn] dd ppp [hPa] vv [km] sd [min] rr [mm]
16.01.2018 08:00:00 7,0 5,1 35 19 67 36 WSW 998,9 10 0 0,4
16.01.2018 07:00:00 7,6 5,1 39 21 62 34 WSW 998,9 10 0 0,0
16.01.2018 06:00:00 7,4 5,9 37 20 54 29 WSW 998,6 10 0 0,2
16.01.2018 05:00:00 6,9 6,2 26 14 43 23 WSW 999,2 13 0 1,6
16.01.2018 04:00:00 7,2 5,2 29 16 55 30 WSW 1000,2 19 0 0,0
16.01.2018 03:00:00 7,2 5,2 31 17 53 28 WSW 1001,1 10 0 0,2
16.01.2018 02:00:00 7,2 5,5 31 17 49 26 WSW 1001,4 10 0 0,0
16.01.2018 01:00:00 7,6 5,6 34 18 55 30 WSW 1001,8 10 0 0,0
16.01.2018 00:00:00 7,0 5,9 28 15 58 31 SW 1001,7 10 0 1,2
15.01.2018 23:00:00 6,1 5,4 37 20 69 37 SSW 1001,9 7 0 1,0
15.01.2018 22:00:00 5,8 4,9 39 21 61 33 SSW 1001,8 6 0 1,1
15.01.2018 21:00:00 5,5 4,3 48 26 72 39 SSW 1002,2 10 0 1,2
15.01.2018 20:00:00 5,0 3,8 50 27 79 42 SSW 1003,0 4,2 0 1,4
15.01.2018 19:00:00 4,8 3,5 40 21 64 35 SSW 1003,8 8 0 2,0
15.01.2018 18:00:00 5,2 3,4 42 23 69 37 SSW 1004,9 10 0 1,2
15.01.2018 17:00:00 6,2 3,4 37 20 56 31 SSW 1006,4 10 0 0,0
15.01.2018 16:00:00 6,5 3,1 28 15 49 26 SSW 1008,0 10 0 0,0
15.01.2018 15:00:00 6,4 3,0 29 16 50 27 S 1008,6 10 0 0,0
15.01.2018 14:00:00 7,1 2,6 35 19 50 27 SSW 1011,2 10 2 0,0
15.01.2018 13:00:00 6,6 2,5 29 16 50 27 SSW 1013,5 10 0 0,0
15.01.2018 12:00:00 6,0 2,6 28 15 38 20 S 1014,6 10 40 0,0
15.01.2018 11:00:00 3,9 1,9 22 12 29 16 S 1016,1 9 0 0,0
15.01.2018 10:00:00 3,2 1,4 21 11 29 16 SSE 1016,7 8 0 0,0
15.01.2018 09:00:00 2,8 1,0 22 12 28 15 SSE 1017,7 8 0 0,0
15.01.2018 08:00:00 1,9 0,4 22 12 29 15 SSE 1018,2 7 0 0,0
15.01.2018 07:00:00 1,7 0,2 22 12 30 16 SSE 1018,3 7 0 0,0
15.01.2018 06:00:00 1,5 0,0 24 13 30 16 SSE 1018,6 7 0 0,0
15.01.2018 05:00:00 1,0 -0,5 18 10 24 13 S 1019,3 7 0 0,0
15.01.2018 04:00:00 1,0 -0,3 19 10 24 13 SSE 1019,8 6 0 0,0
15.01.2018 03:00:00 0,9 -0,4 15 8 21 12 SSE 1020,4 6 0 0,0
15.01.2018 02:00:00 0,4 -0,7 16 9 21 11 SE 1020,6 6 0 0,0
15.01.2018 01:00:00 -0,2 -0,9 16 9 21 11 SE 1021,5 6 0 0,0
15.01.2018 00:00:00 -0,9 -1,9 15 8 21 11 ESE 1022,0 5 0 0,0
14.01.2018 23:00:00 -0,5 -1,5 18 10 25 13 ESE 1021,9 6 0 0,0
14.01.2018 22:00:00 -0,3 -1,3 16 9 25 13 ESE 1021,9 7 0 0,0
14.01.2018 21:00:00 0,4 -1,0 22 12 31 17 ESE 1021,6 7 0 0,0
14.01.2018 20:00:00 1,1 -0,5 24 13 32 17 E 1021,3 8 0 0,0
14.01.2018 19:00:00 1,4 -0,4 22 12 35 19 E 1021,2 8 0 0,0
14.01.2018 18:00:00 2,5 0,1 21 11 27 14 E 1020,8 9 0 0,0
14.01.2018 17:00:00 3,0 0,2 21 11 35 19 E 1020,6 10 28 0,0
14.01.2018 16:00:00 4,5 0,8 19 11 30 16 E 1020,3 9 60 0,0
14.01.2018 15:00:00 5,1 1,0 21 11 29 16 E 1020,0 10 60 0,0
14.01.2018 14:00:00 5,0 0,9 22 12 33 18 E 1020,1 10 60 0,0
14.01.2018 13:00:00 4,4 0,7 24 13 39 21 E 1020,3 9 60 0,0
14.01.2018 12:00:00 3,6 0,5 29 16 40 22 E 1020,5 8 60 0,0
14.01.2018 11:00:00 2,3 -0,3 28 15 37 20 E 1021,0 8 60 0,0
14.01.2018 10:00:00 1,3 -0,5 28 15 41 22 E 1021,1 7 60 0,0
14.01.2018 09:00:00 0,5 -0,8 29 16 39 21 E 1020,2 7 8 0,0
14.01.2018 08:00:00 0,3 -1,0 28 15 36 20 E 1019,9 7 0 0,0
14.01.2018 07:00:00 0,6 -0,9 28 15 40 21 E 1019,7 7 0 0,0
14.01.2018 06:00:00 0,7 -0,8 28 15 39 21 E 1019,5 7 0 0,0
14.01.2018 05:00:00 0,8 -0,7 29 16 39 21 E 1019,6 7 0 0,0
14.01.2018 04:00:00 0,8 -0,5 29 16 36 20 E 1019,7 7 0 0,0
14.01.2018 03:00:00 0,9 -0,6 22 12 30 16 E 1020,0 7 0 0,0
14.01.2018 02:00:00 0,5 -1,0 18 10 26 14 E 1020,1 7 0 0,0
14.01.2018 01:00:00 0,9 -0,7 19 11 33 18 E 1020,4 8 0 0,0
14.01.2018 00:00:00 1,4 -0,5 26 14 36 19 E 1020,1 9 0 0,0
13.01.2018 23:00:00 1,8 -0,3 26 14 37 20 E 1020,1 9 0 0,0
13.01.2018 22:00:00 2,0 0,1 28 15 38 21 E 1020,1 9 0 0,0
13.01.2018 21:00:00 1,8 -0,1 28 15 37 20 E 1020,3 9 0 0,0
13.01.2018 20:00:00 2,4 0,1 28 15 38 21 E 1020,4 10 0 0,0
13.01.2018 19:00:00 2,6 0,0 28 15 37 20 E 1020,6 10 0 0,0
13.01.2018 18:00:00 2,9 0,0 26 14 38 20 E 1020,8 10 0 0,0
13.01.2018 17:00:00 3,5 0,0 21 12 37 20 E 1021,2 14 34 0,0
13.01.2018 16:00:00 4,5 0,4 23 13 35 19 E 1021,4 17 14 0,0
13.01.2018 15:00:00 4,6 0,4 24 13 35 19 E 1021,7 10 0 0,0
13.01.2018 14:00:00 4,4 0,4 24 13 38 20 E 1022,4 10 0 0,0
13.01.2018 13:00:00 4,4 0,5 19 10 29 16 ENE 1023,3 14 0 0,0
13.01.2018 12:00:00 4,3 0,8 22 12 37 20 E 1024,2 10 0 0,0
13.01.2018 11:00:00 3,7 0,4 26 14 42 23 E 1024,7 10 0 0,0
13.01.2018 10:00:00 3,3 0,3 18 10 31 17 ESE 1024,6 12 0 0,0
13.01.2018 09:00:00 2,5 0,6 16 9 35 19 E 1024,5 8 0 0,0
13.01.2018 08:00:00 1,3 0,0 22 12 30 16 E 1024,6 6 0 0,0
13.01.2018 07:00:00 0,8 -0,2 18 10 24 13 E 1025,1 6 0 0,0
13.01.2018 06:00:00 1,5 0,3 15 8 22 12 E 1025,3 7 0 0,0
13.01.2018 05:00:00 3,0 1,0 13 7 27 15 E 1025,4 10 0 0,0
13.01.2018 04:00:00 3,3 1,7 16 9 27 15 E 1025,7 8 0 0,0
13.01.2018 03:00:00 3,4 2,1 18 10 27 14 E 1025,8 8 0 0,0
13.01.2018 02:00:00 3,4 1,9 13 7 20 11 E 1026,2 7 0 0,0
13.01.2018 01:00:00 3,3 2,1 11 6 20 11 E 1026,4 6 0 0,0
13.01.2018 00:00:00 3,5 2,6 11 6 21 11 E 1026,7 5 0 0,0
12.01.2018 23:00:00 3,3 2,9 12 7 24 13 E 1026,7 2,9 0 0,0
12.01.2018 22:00:00 3,1 2,4 16 9 21 11 ESE 1026,3 6 0 0,0
12.01.2018 21:00:00 2,8 1,9 15 8 19 10 E 1026,2 7 0 0,0
12.01.2018 20:00:00 2,7 1,8 13 7 16 9 E 1026,0 6 0 0,0
12.01.2018 19:00:00 3,5 2,5 11 6 16 9 ENE 1025,8 6 0 0,0
12.01.2018 18:00:00 4,2 3,5 5 3 10 5 NE 1025,8 4,2 0 0,0
12.01.2018 17:00:00 5,9 4,9 8 4 11 6 N 1025,6 4,5 0 0,0
12.01.2018 16:00:00 7,1 5,1 8 4 18 10 N 1025,1 7 8 0,0
12.01.2018 15:00:00 8,8 5,0 6 4 14 8 ENE 1024,8 17 24 0,0
12.01.2018 14:00:00 8,6 5,2 9 5 16 9 ENE 1024,7 11 47 0,0
12.01.2018 13:00:00 8,3 5,6 9 5 16 9 NE 1025,3 10 57 0,0
12.01.2018 12:00:00 7,2 5,5 9 5 14 8 NNE 1025,6 7 33 0,0
12.01.2018 11:00:00 5,5 5,2 6 3 11 6 N 1025,9 4,1 0 0,0
12.01.2018 10:00:00 4,8 4,7 8 4 9 5 NNE 1025,5 3,3 0 0,0
12.01.2018 09:00:00 4,6 4,5 5 3 7 4 N 1025,2 1,5 0 0,0
12.01.2018 08:00:00 4,4 4,3 4 2 8 4 - 1024,7 3,5 0 0,0
12.01.2018 07:00:00 4,6 4,5 8 4 12 6 NNE 1024,2 4,4 0 0,0
12.01.2018 06:00:00 4,7 4,6 9 5 13 7 NNW 1023,9 2,4 0 0,0
12.01.2018 05:00:00 4,6 4,5 5 3 9 5 NNE 1023,8 1,5 0 0,0
12.01.2018 04:00:00 4,6 4,5 5 3 7 4 N 1023,8 1,0 0 0,0
12.01.2018 03:00:00 4,5 4,4 5 3 8 4 N 1023,5 1,7 0 0,0
12.01.2018 02:00:00 4,2 4,1 4 2 9 5 NE 1022,9 0,6 0 0,0
12.01.2018 01:00:00 3,9 3,6 5 3 10 6 NE 1022,5 3,4 0 0,0
12.01.2018 00:00:00 4,9 4,8 5 3 9 5 N 1022,2 0,2 0 0,0
11.01.2018 23:00:00 4,8 4,4 2 1 5 3 - 1021,8 3,0 0 0,0
11.01.2018 22:00:00 5,6 5,0 4 2 7 4 NW 1021,2 5 0 0,0
11.01.2018 21:00:00 5,9 5,3 4 2 10 5 NNW 1020,7 3,8 0 0,0
11.01.2018 20:00:00 5,5 4,9 5 3 8 4 NE 1020,2 7 0 0,0
11.01.2018 19:00:00 5,7 5,0 5 3 8 4 NE 1019,6 7 0 0,0
11.01.2018 18:00:00 6,4 5,3 4 2 5 3 NNE 1018,9 7 0 0,0
11.01.2018 17:00:00 6,5 5,1 4 2 7 4 NNE 1018,4 9 0 0,0
11.01.2018 16:00:00 7,4 5,4 5 3 9 5 N 1017,6 10 12 0,0
11.01.2018 15:00:00 8,7 6,0 5 3 11 6 NNW 1016,8 14 43 0,0
11.01.2018 14:00:00 7,4 5,5 4 2 6 3 - 1016,3 10 0 0,0
11.01.2018 13:00:00 7,4 5,4 3 1 7 4 NNW 1016,3 12 0 0,0
11.01.2018 12:00:00 6,8 5,6 4 2 7 4 - 1016,2 7 0 0,0
11.01.2018 11:00:00 6,1 5,5 5 3 10 6 SE 1015,9 5 0 0,0
11.01.2018 10:00:00 5,0 4,7 9 5 11 6 SE 1015,5 3,6 0 0,0
11.01.2018 09:00:00 4,4 4,1 10 5 13 7 SSE 1014,8 4,1 5 0,0
11.01.2018 08:00:00 4,5 3,9 10 5 14 8 SSE 1014,0 4,8 0 0,0
11.01.2018 07:00:00 4,4 4,0 11 6 15 8 SSE 1013,4 6 0 0,0
11.01.2018 06:00:00 4,7 4,1 13 7 17 9 SE 1012,8 6 0 0,0
11.01.2018 05:00:00 5,7 5,1 13 7 18 10 SE 1012,3 6 0 0,0
11.01.2018 04:00:00 5,4 5,0 13 7 19 10 SSE 1012,1 6 0 0,0
11.01.2018 03:00:00 5,3 4,7 15 8 21 11 SSE 1011,8 6 0 0,0
11.01.2018 02:00:00 5,9 5,3 17 9 23 12 SSE 1011,5 7 0 0,0
11.01.2018 01:00:00 6,2 5,6 16 9 22 12 SSE 1011,4 8 0 0,0
11.01.2018 00:00:00 6,2 5,8 16 8 22 12 SSE 1011,5 8 0 0,0
10.01.2018 23:00:00 6,0 5,6 16 9 21 12 SE 1011,5 5 0 0,0
10.01.2018 22:00:00 5,8 5,4 15 8 18 10 SE 1011,5 6 0 0,0
10.01.2018 21:00:00 5,9 5,2 11 6 14 8 SSE 1011,5 5 0 0,0
10.01.2018 20:00:00 6,0 5,1 9 5 19 11 SSE 1011,5 10 0 0,0
10.01.2018 19:00:00 5,9 5,2 11 6 19 10 S 1011,3 10 0 0,0
10.01.2018 18:00:00 5,9 5,6 13 7 23 13 S 1011,0 10 0 0,0
10.01.2018 17:00:00 6,2 5,3 16 9 25 14 S 1010,9 10 0 0,0
10.01.2018 16:00:00 6,5 5,3 15 8 24 13 S 1010,3 10 0 0,0
10.01.2018 15:00:00 6,8 4,9 16 9 26 14 S 1010,0 10 0 0,0
10.01.2018 14:00:00 7,1 4,9 16 9 31 17 S 1010,1 10 0 0,0
10.01.2018 13:00:00 7,1 5,1 13 7 26 14 SSE 1010,8 10 0 0,0
10.01.2018 12:00:00 6,9 5,0 16 9 26 14 SSE 1011,3 10 0 0,0
10.01.2018 11:00:00 6,4 4,9 17 9 24 13 SSE 1012,0 20 13 0,0
10.01.2018 10:00:00 5,8 4,4 16 9 23 12 S 1012,1 10 10 0,0
10.01.2018 09:00:00 4,9 3,9 20 11 26 14 SSE 1011,9 18 0 0,0
10.01.2018 08:00:00 4,5 3,6 21 11 29 15 SSE 1011,8 10 0 0,0

tt = temperature
td = dewpoint
ff = wind speed
fx = gusts
dd = wind direction
ppp = reduced air pressure
vv = visibility
sd = sunshine duration
rr = precipitation

Next stations